Location: Bagnara
(41.0500°N, 14.7833°E)
Time: 15:05:08
(UTC+00:00)

NOSS 3 (A) - Pass Details

Date: 20 June 2021
Orbit: 160 x 953 km, 63.3° (Epoch: 23 April)

Event Time Altitude Azimuth Distance (km) Brightness Sun altitude
Exits shadow 02:32:23 22° 211° (SSW) 421 4.2 -9.2°
Maximum altitude 02:33:13 84° 125° (SE) 171 2.8 -9.1°
Drops below altitude 10° 02:34:52 10° 36° (NE) 781 7.7 -8.9°
Sets 02:36:41 0° 35° (NE) 1,608 9.6 -8.6°
